Time,TemperatureF,DewpointF,PressureIn,WindDirection,WindDirectionDegrees,WindSpeedMPH,WindSpeedGustMPH,Humidity,HourlyPrecipIn,Conditions,Clouds,dailyrainin,SoftwareType,DateUTC
2013-06-22 00:02:00,74.4,73.0,30.04,SSE,154,0.0,1.0,96,0.00,,,0.00,weatherlink.com 1.10,2013-06-22 05:02:00,
2013-06-22 00:17:00,74.2,73.0,30.05,SSE,154,0.0,0.0,96,0.00,,,0.00,weatherlink.com 1.10,2013-06-22 05:17:00,
2013-06-22 00:32:00,74.1,73.0,30.05,SSE,154,0.0,1.0,97,0.00,,,0.00,weatherlink.com 1.10,2013-06-22 05:32:00,
2013-06-22 00:47:00,73.9,73.0,30.05,SSE,154,0.0,0.0,96,0.00,,,0.00,weatherlink.com 1.10,2013-06-22 05:47:00,
2013-06-22 01:02:00,73.7,73.0,30.04,SSE,154,0.0,0.0,97,0.00,,,0.00,weatherlink.com 1.10,2013-06-22 06:02:00,
2013-06-22 01:17:00,73.7,73.0,30.04,SSE,154,0.0,0.0,97,0.00,,,0.00,weatherlink.com 1.10,2013-06-22 06:17:00,
2013-06-22 01:32:00,73.5,73.0,30.04,SSE,154,0.0,0.0,97,0.00,,,0.00,weatherlink.com 1.10,2013-06-22 06:32:00,
2013-06-22 01:47:00,73.2,72.0,30.04,SSE,154,0.0,1.0,97,0.00,,,0.00,weatherlink.com 1.10,2013-06-22 06:47:00,
2013-06-22 02:02:00,72.9,72.0,30.03,SSE,154,0.0,1.0,97,0.00,,,0.00,weatherlink.com 1.10,2013-06-22 07:02:00,
2013-06-22 02:17:00,72.7,72.0,30.03,SSE,154,0.0,0.0,97,0.00,,,0.00,weatherlink.com 1.10,2013-06-22 07:17:00,
2013-06-22 02:32:00,72.4,72.0,30.02,SSE,154,0.0,0.0,97,0.00,,,0.00,weatherlink.com 1.10,2013-06-22 07:32:00,
2013-06-22 02:47:00,72.3,71.0,30.02,SSE,154,0.0,1.0,97,0.00,,,0.00,weatherlink.com 1.10,2013-06-22 07:47:00,
2013-06-22 03:02:00,72.2,72.0,30.02,SSE,154,0.0,1.0,98,0.00,,,0.00,weatherlink.com 1.10,2013-06-22 08:02:00,
2013-06-22 03:17:00,72.1,72.0,30.01,SSE,154,0.0,1.0,98,0.00,,,0.00,weatherlink.com 1.10,2013-06-22 08:17:00,
2013-06-22 03:32:00,71.9,71.0,30.01,SSE,154,0.0,0.0,98,0.00,,,0.00,weatherlink.com 1.10,2013-06-22 08:32:00,
2013-06-22 03:47:00,71.7,71.0,30.01,SSE,154,0.0,1.0,98,0.00,,,0.00,weatherlink.com 1.10,2013-06-22 08:47:00,
2013-06-22 04:02:00,71.5,71.0,30.02,SSE,154,0.0,0.0,98,0.00,,,0.00,weatherlink.com 1.10,2013-06-22 09:02:00,
2013-06-22 04:17:00,71.3,71.0,30.02,SSE,154,0.0,0.0,98,0.00,,,0.00,weatherlink.com 1.10,2013-06-22 09:17:00,
2013-06-22 04:32:00,71.3,71.0,30.02,SSE,154,0.0,0.0,98,0.00,,,0.00,weatherlink.com 1.10,2013-06-22 09:32:00,
2013-06-22 04:47:00,71.2,71.0,30.02,SSE,154,0.0,0.0,98,0.00,,,0.00,weatherlink.com 1.10,2013-06-22 09:47:00,
2013-06-22 05:02:00,71.0,70.0,30.02,SSE,154,0.0,1.0,98,0.00,,,0.00,weatherlink.com 1.10,2013-06-22 10:02:00,
2013-06-22 05:17:00,70.8,70.0,30.03,SSE,154,0.0,0.0,98,0.00,,,0.00,weatherlink.com 1.10,2013-06-22 10:17:00,
2013-06-22 05:32:00,70.7,70.0,30.04,SSE,154,0.0,0.0,98,0.00,,,0.00,weatherlink.com 1.10,2013-06-22 10:32:00,
2013-06-22 05:47:00,70.5,70.0,30.05,SSE,154,0.0,0.0,98,0.00,,,0.00,weatherlink.com 1.10,2013-06-22 10:47:00,
2013-06-22 06:02:00,70.4,70.0,30.05,SSE,154,0.0,0.0,98,0.00,,,0.00,weatherlink.com 1.10,2013-06-22 11:02:00,
2013-06-22 06:17:00,70.2,70.0,30.05,SSE,154,0.0,0.0,98,0.00,,,0.00,weatherlink.com 1.10,2013-06-22 11:17:00,
2013-06-22 06:32:00,70.2,70.0,30.05,SSE,148,0.0,2.0,99,0.00,,,0.00,weatherlink.com 1.10,2013-06-22 11:32:00,
2013-06-22 06:47:00,70.8,71.0,30.05,SE,145,0.0,1.0,99,0.00,,,0.00,weatherlink.com 1.10,2013-06-22 11:47:00,
2013-06-22 07:02:00,71.6,71.0,30.06,SE,145,1.0,1.0,99,0.00,,,0.00,weatherlink.com 1.10,2013-06-22 12:02:00,
2013-06-22 07:17:00,72.4,72.0,30.05,SE,142,0.0,2.0,100,0.00,,,0.00,weatherlink.com 1.10,2013-06-22 12:17:00,
2013-06-22 07:32:00,73.2,73.0,30.05,SE,142,1.0,1.0,100,0.00,,,0.00,weatherlink.com 1.10,2013-06-22 12:32:00,
2013-06-22 07:47:00,74.0,74.0,30.06,ENE,70,1.0,6.0,99,0.00,,,0.00,weatherlink.com 1.10,2013-06-22 12:47:00,
2013-06-22 08:02:00,75.9,74.0,30.06,ESE,106,1.0,3.0,95,0.00,,,0.00,weatherlink.com 1.10,2013-06-22 13:02:00,
2013-06-22 08:18:00,78.4,76.0,30.07,ESE,104,0.0,3.0,92,0.00,,,0.00,weatherlink.com 1.10,2013-06-22 13:18:00,
2013-06-22 08:33:00,79.7,76.0,30.06,ESE,110,3.0,7.0,87,0.00,,,0.00,weatherlink.com 1.10,2013-06-22 13:33:00,
2013-06-22 08:48:00,81.3,77.0,30.07,SE,131,0.0,5.0,86,0.00,,,0.00,weatherlink.com 1.10,2013-06-22 13:48:00,
2013-06-22 09:03:00,83.0,78.0,30.07,ENE,77,0.0,3.0,85,0.00,,,0.00,weatherlink.com 1.10,2013-06-22 14:03:00,
2013-06-22 09:18:00,83.9,78.0,30.07,ENE,68,2.0,4.0,82,0.00,,,0.00,weatherlink.com 1.10,2013-06-22 14:18:00,
2013-06-22 09:33:00,84.8,78.0,30.07,ENE,74,2.0,6.0,80,0.00,,,0.00,weatherlink.com 1.10,2013-06-22 14:33:00,
2013-06-22 09:48:00,84.3,78.0,30.07,SE,125,1.0,5.0,81,0.00,,,0.00,weatherlink.com 1.10,2013-06-22 14:48:00,
2013-06-22 10:03:00,85.0,78.0,30.07,ESE,117,1.0,7.0,80,0.00,,,0.00,weatherlink.com 1.10,2013-06-22 15:03:00,
2013-06-22 10:18:00,84.4,78.0,30.07,SE,136,0.0,5.0,80,0.00,,,0.00,weatherlink.com 1.10,2013-06-22 15:18:00,
2013-06-22 10:33:00,85.4,78.0,30.07,SE,133,0.0,6.0,78,0.00,,,0.00,weatherlink.com 1.10,2013-06-22 15:33:00,
2013-06-22 10:48:00,86.7,78.0,30.08,SE,137,2.0,5.0,74,0.00,,,0.00,weatherlink.com 1.10,2013-06-22 15:48:00,
2013-06-22 11:03:00,86.8,78.0,30.08,SE,128,1.0,3.0,74,0.00,,,0.00,weatherlink.com 1.10,2013-06-22 16:03:00,
2013-06-22 11:18:00,86.9,77.0,30.08,South,169,4.0,5.0,73,0.00,,,0.00,weatherlink.com 1.10,2013-06-22 16:18:00,
2013-06-22 11:33:00,87.8,77.0,30.08,South,190,2.0,5.0,71,0.00,,,0.00,weatherlink.com 1.10,2013-06-22 16:33:00,
2013-06-22 11:48:00,88.7,79.0,30.08,East,90,2.0,5.0,72,0.00,,,0.00,weatherlink.com 1.10,2013-06-22 16:48:00,
2013-06-22 12:03:00,89.3,77.0,30.08,East,86,5.0,7.0,66,0.00,,,0.00,weatherlink.com 1.10,2013-06-22 17:03:00,
2013-06-22 12:18:00,89.9,77.0,30.08,North,5,3.0,5.0,66,0.00,,,0.00,weatherlink.com 1.10,2013-06-22 17:18:00,
2013-06-22 12:33:00,89.5,76.0,30.08,South,180,4.0,4.0,65,0.00,,,0.00,weatherlink.com 1.10,2013-06-22 17:33:00,
2013-06-22 12:48:00,89.9,78.0,30.07,ESE,103,1.0,6.0,69,0.00,,,0.00,weatherlink.com 1.10,2013-06-22 17:48:00,
2013-06-22 13:03:00,90.3,76.0,30.07,SW,225,0.0,4.0,62,0.00,,,0.00,weatherlink.com 1.10,2013-06-22 18:03:00,
2013-06-22 13:18:00,90.4,77.0,30.06,NNE,30,1.0,4.0,64,0.00,,,0.00,weatherlink.com 1.10,2013-06-22 18:18:00,
2013-06-22 13:33:00,89.8,76.0,30.06,NNE,17,4.0,6.0,63,0.00,,,0.00,weatherlink.com 1.10,2013-06-22 18:33:00,
2013-06-22 13:48:00,90.3,77.0,30.05,NE,48,5.0,5.0,64,0.00,,,0.00,weatherlink.com 1.10,2013-06-22 18:48:00,
2013-06-22 14:03:00,90.3,77.0,30.05,East,90,0.0,7.0,64,0.00,,,0.00,weatherlink.com 1.10,2013-06-22 19:03:00,
2013-06-22 14:18:00,91.1,77.0,30.04,ESE,103,5.0,6.0,63,0.00,,,0.00,weatherlink.com 1.10,2013-06-22 19:18:00,
2013-06-22 14:33:00,90.7,76.0,30.04,ENE,65,0.0,5.0,62,0.00,,,0.00,weatherlink.com 1.10,2013-06-22 19:33:00,
2013-06-22 14:48:00,90.5,75.0,30.03,ENE,67,3.0,6.0,61,0.00,,,0.00,weatherlink.com 1.10,2013-06-22 19:48:00,
2013-06-22 15:03:00,91.2,77.0,30.02,NE,37,0.0,4.0,64,0.00,,,0.00,weatherlink.com 1.10,2013-06-22 20:03:00,
2013-06-22 15:18:00,91.0,77.0,30.02,North,5,1.0,5.0,63,0.00,,,0.00,weatherlink.com 1.10,2013-06-22 20:18:00,
2013-06-22 15:33:00,91.8,77.0,30.01,NNE,29,2.0,7.0,62,0.00,,,0.00,weatherlink.com 1.10,2013-06-22 20:33:00,
2013-06-22 15:48:00,90.1,77.0,30.02,South,175,1.0,6.0,65,0.00,,,0.00,weatherlink.com 1.10,2013-06-22 20:48:00,
2013-06-22 16:03:00,87.8,76.0,30.02,SW,227,4.0,6.0,69,0.00,,,0.00,weatherlink.com 1.10,2013-06-22 21:03:00,
2013-06-22 16:18:00,86.6,76.0,30.02,ESE,119,3.0,9.0,71,0.00,,,0.00,weatherlink.com 1.10,2013-06-22 21:18:00,
2013-06-22 16:33:00,84.8,76.0,30.02,NE,54,4.0,7.0,75,0.00,,,0.00,weatherlink.com 1.10,2013-06-22 21:33:00,
2013-06-22 16:49:00,82.3,77.0,30.02,WSW,254,3.0,5.0,83,0.01,,,0.01,weatherlink.com 1.10,2013-06-22 21:49:00,
2013-06-22 17:04:00,81.4,77.0,30.01,WNW,298,1.0,5.0,86,0.01,,,0.01,weatherlink.com 1.10,2013-06-22 22:04:00,
2013-06-22 17:19:00,81.4,77.0,30.01,South,171,3.0,4.0,86,0.01,,,0.01,weatherlink.com 1.10,2013-06-22 22:19:00,
2013-06-22 17:34:00,80.8,74.0,30.00,SSE,150,0.0,9.0,80,0.01,,,0.01,weatherlink.com 1.10,2013-06-22 22:34:00,
2013-06-22 17:49:00,80.7,74.0,30.00,East,80,0.0,3.0,79,0.00,,,0.01,weatherlink.com 1.10,2013-06-22 22:49:00,
2013-06-22 18:04:00,81.5,74.0,29.99,SSE,163,1.0,3.0,79,0.00,,,0.01,weatherlink.com 1.10,2013-06-22 23:04:00,
2013-06-22 18:19:00,84.0,76.0,29.98,SE,125,2.0,4.0,77,0.00,,,0.01,weatherlink.com 1.10,2013-06-22 23:19:00,
2013-06-22 18:34:00,85.6,77.0,29.98,ESE,103,0.0,4.0,75,0.00,,,0.01,weatherlink.com 1.10,2013-06-22 23:34:00,
2013-06-22 18:49:00,85.7,78.0,29.99,ESE,103,2.0,4.0,77,0.00,,,0.01,weatherlink.com 1.10,2013-06-22 23:49:00,
2013-06-22 19:04:00,85.5,78.0,29.99,SE,136,0.0,2.0,79,0.00,,,0.01,weatherlink.com 1.10,2013-06-23 00:04:00,
2013-06-22 19:19:00,84.5,78.0,29.99,SE,134,0.0,2.0,81,0.00,,,0.01,weatherlink.com 1.10,2013-06-23 00:19:00,
2013-06-22 19:34:00,83.3,78.0,29.98,ESE,110,0.0,1.0,83,0.00,,,0.01,weatherlink.com 1.10,2013-06-23 00:34:00,
2013-06-22 19:49:00,82.1,78.0,29.98,ESE,112,0.0,1.0,86,0.00,,,0.01,weatherlink.com 1.10,2013-06-23 00:49:00,
2013-06-22 20:04:00,80.7,77.0,29.98,ESE,112,0.0,0.0,88,0.00,,,0.01,weatherlink.com 1.10,2013-06-23 01:04:00,
2013-06-22 20:19:00,79.4,76.0,29.98,ESE,112,0.0,0.0,90,0.00,,,0.01,weatherlink.com 1.10,2013-06-23 01:19:00,
2013-06-22 20:34:00,78.5,76.0,29.98,ESE,112,0.0,0.0,92,0.00,,,0.01,weatherlink.com 1.10,2013-06-23 01:34:00,
2013-06-22 20:49:00,77.8,76.0,29.98,ESE,112,0.0,0.0,93,0.00,,,0.01,weatherlink.com 1.10,2013-06-23 01:49:00,
2013-06-22 21:04:00,77.1,75.0,29.98,ESE,112,0.0,1.0,94,0.00,,,0.01,weatherlink.com 1.10,2013-06-23 02:04:00,
2013-06-22 21:19:00,76.6,75.0,29.99,ESE,112,0.0,0.0,95,0.00,,,0.01,weatherlink.com 1.10,2013-06-23 02:19:00,
2013-06-22 21:34:00,76.4,75.0,30.00,ESE,112,0.0,1.0,95,0.00,,,0.01,weatherlink.com 1.10,2013-06-23 02:34:00,
2013-06-22 21:49:00,76.0,75.0,30.01,ESE,112,0.0,0.0,96,0.00,,,0.01,weatherlink.com 1.10,2013-06-23 02:49:00,
2013-06-22 22:04:00,75.6,74.0,30.01,ESE,112,0.0,0.0,96,0.00,,,0.01,weatherlink.com 1.10,2013-06-23 03:04:00,
2013-06-22 22:19:00,75.3,74.0,30.01,ESE,112,0.0,0.0,96,0.00,,,0.01,weatherlink.com 1.10,2013-06-23 03:19:00,
2013-06-22 22:34:00,74.9,74.0,30.02,ESE,112,0.0,0.0,96,0.00,,,0.01,weatherlink.com 1.10,2013-06-23 03:34:00,
2013-06-22 22:49:00,74.7,74.0,30.02,ESE,112,0.0,0.0,97,0.00,,,0.01,weatherlink.com 1.10,2013-06-23 03:49:00,
2013-06-22 23:04:00,74.5,74.0,30.02,ESE,112,0.0,1.0,97,0.00,,,0.01,weatherlink.com 1.10,2013-06-23 04:04:00,
2013-06-22 23:19:00,74.1,73.0,30.03,ESE,112,0.0,1.0,97,0.00,,,0.01,weatherlink.com 1.10,2013-06-23 04:19:00,
2013-06-22 23:34:00,73.9,73.0,30.03,ESE,112,0.0,0.0,97,0.00,,,0.01,weatherlink.com 1.10,2013-06-23 04:34:00,
2013-06-22 23:49:00,73.9,73.0,30.03,ESE,112,0.0,0.0,98,0.00,,,0.01,weatherlink.com 1.10,2013-06-23 04:49:00,